Aspen, CO

6:37 PM MDT on May 23, 2018 (GMT -0600)
Aspen-Pitkin County / Sardy Field

Weather History for KASE - May, 2014

Change the Weather History Date:

Monday, May 12, 2014

  Actual Average Record
Temperature  
Mean Temperature 31 °F 47 °F  
Max Temperature 34 °F 61 °F 75 °F (1988)
Min Temperature 27 °F 33 °F 15 °F (1983)
Degree Days  
Heating Degree Days 34 18  
Month to date heating degree days 253 232  
Since 1 July heating degree days 8127 8362  
Cooling Degree Days 0 0  
Month to date cooling degree days 0 0  
Year to date cooling degree days 0 0  
Moisture  
Dew Point 27 °F    
Average Humidity 88    
Maximum Humidity 100    
Minimum Humidity 75    
Precipitation  
Precipitation T in 0.05 in 0.25 in (1981)
Month to date precipitation 0.61 0.75  
Year to date precipitation 5.31 6.15  
Sea Level Pressure  
Sea Level Pressure 30.01 in    
Wind  
Wind Speed 6 mph (NNW)    
Max Wind Speed 15 mph    
Max Gust Speed 20 mph    
Visibility 6 miles    
Events Snow    
T = Trace of Precipitation, MM = Missing Value Source: NWS Daily Summary

Daily Weather History Graph

Daily Weather History Graph

Search for Another Location

Airport or City:

Astronomy

May. 12, 2014 Rise Set
Actual Time 5:56 AM MDT 8:11 PM MDT
Civil Twilight 5:27 AM MDT 8:41 PM MDT
Nautical Twilight 4:50 AM MDT 9:18 PM MDT
Astronomical Twilight 4:10 AM MDT 9:58 PM MDT
Moon 6:13 PM MDT (5/12) 4:36 AM MDT (5/12)
Length of Visible Light 15h 14m
Length of Day
14h 14m
Waxing Gibbous, 95% of the Moon is Illuminated
May 12
Waxing Gibbous
May 14
Full
May 21
Last Quarter
May 28
New
Jun 5
First Quarter

Hourly Weather History & Observations

Time (MDT) Temp. Windchill Dew Point Humidity Pressure Visibility Wind Dir Wind Speed Gust Speed Precip Events Conditions
12:01 AM 30.0 °F 23.2 °F 28.9 °F 96% 29.90 in 0.8 mi North 6.9 mph - 0.01 in Snow Light Snow
12:13 AM 30.0 °F 24.1 °F 28.9 °F 96% 29.90 in 1.2 mi NNE 5.8 mph - 0.01 in Snow Light Snow
12:31 AM 30.0 °F 23.2 °F 28.9 °F 96% 29.91 in 1.8 mi North 6.9 mph - 0.01 in Snow Light Snow
12:35 AM 30.0 °F 23.2 °F 28.9 °F 96% 29.91 in 3.0 mi North 6.9 mph - 0.01 in Snow Light Snow
12:46 AM 30.0 °F 24.1 °F 28.0 °F 92% 29.91 in 5.0 mi North 5.8 mph - 0.01 in Snow Light Snow
12:53 AM 30.0 °F 25.2 °F 28.0 °F 92% 29.78 in 6.0 mi North 4.6 mph - 0.01 in   Overcast
1:17 AM 30.0 °F 24.1 °F 28.0 °F 92% 29.92 in 8.0 mi North 5.8 mph - 0.00 in Snow Light Snow
1:27 AM 30.0 °F 25.2 °F 28.9 °F 96% 29.92 in 2.5 mi North 4.6 mph - 0.00 in Snow Light Snow
1:38 AM 28.9 °F 21.1 °F 28.0 °F 96% 29.92 in 4.0 mi North 8.1 mph - 0.00 in Snow Light Snow
1:50 AM 28.4 °F 20.4 °F 28.4 °F 100% 29.92 in 9.0 mi North 8.1 mph - 0.00 in   Overcast
1:53 AM 28.9 °F 20.4 °F 28.0 °F 96% 29.81 in 9.0 mi NNW 9.2 mph - 0.00 in   Overcast
2:13 AM 28.9 °F 21.1 °F 28.0 °F 96% 29.93 in 10.0 mi North 8.1 mph - N/A   Overcast
2:53 AM 28.0 °F 22.8 °F 26.1 °F 92% 29.83 in 10.0 mi Variable 4.6 mph - N/A   Overcast
3:17 AM 28.0 °F 22.8 °F 26.1 °F 92% 29.96 in 10.0 mi NNW 4.6 mph - N/A   Overcast
3:45 AM 28.0 °F 24.2 °F 26.1 °F 92% 29.96 in 10.0 mi NNW 3.5 mph - N/A   Overcast
3:53 AM 28.0 °F 24.2 °F 26.1 °F 92% 29.90 in 10.0 mi North 3.5 mph - N/A   Overcast
4:11 AM 28.0 °F 24.2 °F 26.1 °F 92% 29.97 in 10.0 mi NNW 3.5 mph - N/A   Overcast
4:20 AM 28.0 °F 22.8 °F 26.1 °F 92% 29.97 in 10.0 mi NNW 4.6 mph - N/A   Overcast
4:32 AM 27.0 °F 23.0 °F 25.0 °F 92% 29.97 in 10.0 mi NNW 3.5 mph - N/A   Overcast
4:53 AM 27.0 °F 23.0 °F 26.1 °F 96% 29.89 in 10.0 mi NW 3.5 mph - N/A   Overcast
5:14 AM 27.0 °F 23.0 °F 26.1 °F 96% 29.98 in 10.0 mi NNW 3.5 mph - N/A   Overcast
5:53 AM 28.0 °F 24.2 °F 26.1 °F 92% 29.92 in 8.0 mi NNW 3.5 mph - 0.00 in Snow Light Snow
6:12 AM 28.0 °F 24.2 °F 26.1 °F 92% 30.01 in 2.5 mi NW 3.5 mph - 0.00 in Snow Light Snow
6:20 AM 28.0 °F 24.2 °F 26.1 °F 92% 30.02 in 1.2 mi NW 3.5 mph - 0.00 in Snow Light Snow
6:30 AM 27.0 °F 23.0 °F 26.1 °F 96% 30.02 in 2.0 mi NNW 3.5 mph - 0.00 in Snow Light Snow
6:36 AM 28.0 °F 24.2 °F 26.1 °F 92% 30.02 in 3.0 mi NNW 3.5 mph - 0.00 in Snow Light Snow
6:53 AM 27.0 °F - 26.1 °F 96% 29.98 in 5.0 mi Calm Calm - 0.00 in Snow Light Snow
8:53 AM 30.0 °F 24.1 °F 26.1 °F 85% 30.00 in 10.0 mi North 5.8 mph - N/A   Overcast
9:00 AM 30.0 °F 24.1 °F 26.1 °F 85% 30.07 in 10.0 mi NNE 5.8 mph - N/A   Overcast
9:53 AM 30.9 °F 24.3 °F 27.0 °F 85% 30.01 in 3.0 mi North 6.9 mph - 0.00 in Snow Light Snow
10:53 AM 32.0 °F 25.6 °F 27.0 °F 82% 30.03 in 4.0 mi North 6.9 mph - 0.00 in Snow Light Snow
11:36 AM 32.0 °F 24.2 °F 27.0 °F 82% 30.12 in 2.0 mi NNW 9.2 mph - 0.00 in Snow Light Snow
11:53 AM 32.0 °F 23.6 °F 28.0 °F 85% 30.06 in 2.0 mi North 10.4 mph - 0.00 in Snow Light Snow
12:53 PM 32.0 °F 23.0 °F 28.0 °F 85% 30.06 in 2.0 mi North 11.5 mph 19.6 mph 0.00 in Snow Light Snow
1:53 PM 32.0 °F 23.6 °F 27.0 °F 82% 30.07 in 2.0 mi NNW 10.4 mph - 0.00 in Snow Light Snow
2:26 PM 32.0 °F 22.5 °F 27.0 °F 82% 30.13 in 2.5 mi North 12.7 mph - 0.00 in Snow Light Snow
2:53 PM 33.1 °F 25.5 °F 28.0 °F 82% 30.08 in 2.0 mi North 9.2 mph - 0.00 in Snow Light Snow
3:02 PM 32.0 °F 24.8 °F 28.0 °F 85% 30.13 in 3.0 mi North 8.1 mph - 0.00 in Snow Light Snow
3:53 PM 33.1 °F 30.0 °F 28.0 °F 82% 30.07 in 3.0 mi Variable 3.5 mph - 0.00 in Snow Light Snow
3:58 PM 33.1 °F 30.0 °F 28.0 °F 82% 30.13 in 2.0 mi North 3.5 mph - 0.00 in Snow Light Snow
4:19 PM 33.1 °F 28.7 °F 28.9 °F 85% 30.13 in 3.0 mi NE 4.6 mph - 0.00 in Snow Light Snow
4:53 PM 33.1 °F 28.7 °F 28.9 °F 85% 30.09 in 6.0 mi Variable 4.6 mph - 0.00 in Snow Light Snow
5:53 PM 33.1 °F 24.9 °F 27.0 °F 78% 30.09 in 3.0 mi WNW 10.4 mph - 0.00 in Snow Light Snow
6:53 PM 32.0 °F 25.6 °F 27.0 °F 82% 30.12 in 1.0 mi West 6.9 mph - 0.00 in Snow Light Snow
7:31 PM 32.0 °F 22.5 °F 27.0 °F 82% 30.19 in 5.0 mi West 12.7 mph - 0.00 in Snow Light Snow
7:53 PM 32.0 °F 23.6 °F 26.1 °F 79% 30.14 in 7.0 mi West 10.4 mph - 0.00 in   Overcast
9:02 PM 30.9 °F 22.2 °F 26.1 °F 82% 30.23 in 6.0 mi West 10.4 mph - N/A   Haze
9:53 PM 30.9 °F - 25.0 °F 79% 30.20 in 4.0 mi Calm Calm - 0.00 in Snow Light Snow
10:53 PM 30.0 °F - 26.1 °F 85% 30.22 in 10.0 mi Calm Calm - 0.00 in   Overcast
11:53 PM 28.9 °F - 25.0 °F 85% 30.24 in 10.0 mi Calm Calm - N/A   Mostly Cloudy